Time,TemperatureF,DewpointF,PressureIn,WindDirection,WindDirectionDegrees,WindSpeedMPH,WindSpeedGustMPH,Humidity,HourlyPrecipIn,Conditions,Clouds,dailyrainin,SoftwareType,DateUTC
2013-01-08 00:02:00,34.0,25.2,30.00,ESE,113,0.4,0.4,70,0.00,,,0.00,WUHU216HW,2013-01-08 06:02:00,
2013-01-08 00:07:00,34.2,25.0,30.00,SE,135,0.4,0.4,69,0.00,,,0.00,WUHU216HW,2013-01-08 06:07:00,
2013-01-08 00:12:00,34.0,25.2,30.00,SE,135,0.2,0.4,70,0.00,,,0.00,WUHU216HW,2013-01-08 06:12:00,
2013-01-08 00:17:00,33.8,24.7,30.00,SSE,158,0.4,0.4,69,0.00,,,0.00,WUHU216HW,2013-01-08 06:17:00,
2013-01-08 00:22:00,33.8,24.7,30.00,SSE,158,0.1,0.4,69,0.00,,,0.00,WUHU216HW,2013-01-08 06:22:00,
2013-01-08 00:27:00,33.7,24.5,30.00,SSE,158,0.0,0.2,69,0.00,,,0.00,WUHU216HW,2013-01-08 06:27:00,
2013-01-08 00:32:00,33.5,24.7,30.00,SSE,158,0.1,0.2,70,0.00,,,0.00,WUHU216HW,2013-01-08 06:32:00,
2013-01-08 00:37:00,33.3,24.2,30.00,SSE,158,0.2,0.4,69,0.00,,,0.00,WUHU216HW,2013-01-08 06:37:00,
2013-01-08 00:42:00,33.1,24.4,30.00,SSE,158,0.2,0.4,70,0.00,,,0.00,WUHU216HW,2013-01-08 06:42:00,
2013-01-08 00:47:00,32.9,24.2,30.00,SSE,158,0.2,0.4,70,0.00,,,0.00,WUHU216HW,2013-01-08 06:47:00,
2013-01-08 00:52:00,32.9,24.2,29.99,SSE,158,0.3,0.4,70,0.00,,,0.00,WUHU216HW,2013-01-08 06:52:00,
2013-01-08 00:57:00,32.8,24.0,29.99,SE,135,0.2,0.4,70,0.00,,,0.00,WUHU216HW,2013-01-08 06:57:00,
2013-01-08 01:02:00,32.8,24.0,29.99,SE,135,0.4,0.4,70,0.00,,,0.00,WUHU216HW,2013-01-08 07:02:00,
2013-01-08 01:07:00,32.6,24.2,29.99,SE,135,0.4,0.4,71,0.00,,,0.00,WUHU216HW,2013-01-08 07:07:00,
2013-01-08 01:12:00,32.6,24.2,29.99,SSE,158,0.4,0.7,71,0.00,,,0.00,WUHU216HW,2013-01-08 07:12:00,
2013-01-08 01:17:00,32.6,24.6,29.99,SE,135,0.4,0.7,72,0.00,,,0.00,WUHU216HW,2013-01-08 07:17:00,
2013-01-08 01:22:00,32.6,24.6,30.00,ESE,113,0.4,1.1,72,0.00,,,0.00,WUHU216HW,2013-01-08 07:22:00,
2013-01-08 01:27:00,32.8,24.4,30.00,SSE,158,0.4,1.1,71,0.00,,,0.00,WUHU216HW,2013-01-08 07:27:00,
2013-01-08 01:32:00,32.9,24.6,30.00,SE,135,1.0,1.8,71,0.00,,,0.00,WUHU216HW,2013-01-08 07:32:00,
2013-01-08 01:37:00,32.9,24.2,30.00,ESE,113,0.4,1.8,70,0.00,,,0.00,WUHU216HW,2013-01-08 07:37:00,
2013-01-08 01:42:00,32.8,24.4,29.99,ESE,113,0.4,0.4,71,0.00,,,0.00,WUHU216HW,2013-01-08 07:42:00,
2013-01-08 01:47:00,32.8,24.4,29.99,SE,135,0.4,0.7,71,0.00,,,0.00,WUHU216HW,2013-01-08 07:47:00,
2013-01-08 01:52:00,32.8,24.4,29.99,SE,135,0.6,1.1,71,0.00,,,0.00,WUHU216HW,2013-01-08 07:52:00,
2013-01-08 01:57:00,32.6,24.2,29.99,SE,130,0.6,1.1,71,0.00,,,0.00,WUHU216HW,2013-01-08 07:57:00,
2013-01-08 02:02:00,32.6,24.2,29.99,SSE,158,0.9,0.9,71,0.00,,,0.00,WUHU216HW,2013-01-08 08:02:00,
2013-01-08 02:07:00,32.4,24.0,29.99,ESE,113,0.4,0.9,71,0.00,,,0.00,WUHU216HW,2013-01-08 08:07:00,
2013-01-08 02:12:00,32.4,24.0,29.99,ESE,113,0.1,0.4,71,0.00,,,0.00,WUHU216HW,2013-01-08 08:12:00,
2013-01-08 02:17:00,32.2,24.2,29.99,ESE,113,0.6,0.7,72,0.00,,,0.00,WUHU216HW,2013-01-08 08:17:00,
2013-01-08 02:22:00,32.0,24.0,29.98,ESE,113,0.9,0.9,72,0.00,,,0.00,WUHU216HW,2013-01-08 08:22:00,
2013-01-08 02:27:00,32.0,24.0,29.99,ESE,113,0.2,0.9,72,0.00,,,0.00,WUHU216HW,2013-01-08 08:27:00,
2013-01-08 02:32:00,32.0,23.8,30.00,East,90,0.0,0.2,71,0.00,,,0.00,WUHU216HW,2013-01-08 08:32:00,
2013-01-08 02:37:00,31.9,23.6,30.00,East,90,0.0,0.2,71,0.00,,,0.00,WUHU216HW,2013-01-08 08:37:00,
2013-01-08 02:42:00,31.7,24.0,30.00,ESE,113,0.0,0.0,73,0.00,,,0.00,WUHU216HW,2013-01-08 08:42:00,
2013-01-08 02:47:00,31.9,23.9,30.00,ESE,113,0.0,0.0,72,0.00,,,0.00,WUHU216HW,2013-01-08 08:47:00,
2013-01-08 02:52:00,31.9,24.2,30.00,ESE,113,0.2,0.2,73,0.00,,,0.00,WUHU216HW,2013-01-08 08:52:00,
2013-01-08 02:57:00,31.9,24.2,30.00,ESE,113,0.1,0.4,73,0.00,,,0.00,WUHU216HW,2013-01-08 08:57:00,
2013-01-08 03:02:00,32.0,24.4,30.00,SSE,158,0.1,0.4,73,0.00,,,0.00,WUHU216HW,2013-01-08 09:02:00,
2013-01-08 03:07:00,32.0,24.0,30.01,SE,135,0.4,0.7,72,0.00,,,0.00,WUHU216HW,2013-01-08 09:07:00,
2013-01-08 03:12:00,32.0,24.4,30.01,SE,135,0.3,0.7,73,0.00,,,0.00,WUHU216HW,2013-01-08 09:12:00,
2013-01-08 03:17:00,32.0,24.4,30.01,SE,135,0.3,0.4,73,0.00,,,0.00,WUHU216HW,2013-01-08 09:17:00,
2013-01-08 03:22:00,32.0,24.4,30.00,SE,135,0.4,0.7,73,0.00,,,0.00,WUHU216HW,2013-01-08 09:22:00,
2013-01-08 03:27:00,31.9,24.2,30.01,SE,135,0.0,0.7,73,0.00,,,0.00,WUHU216HW,2013-01-08 09:27:00,
2013-01-08 03:32:00,31.7,23.7,30.01,SE,135,0.0,0.4,72,0.00,,,0.00,WUHU216HW,2013-01-08 09:32:00,
2013-01-08 03:37:00,31.5,24.1,30.01,SE,135,0.2,0.4,74,0.00,,,0.00,WUHU216HW,2013-01-08 09:37:00,
2013-01-08 03:42:00,31.7,24.3,30.00,SE,135,0.0,0.4,74,0.00,,,0.00,WUHU216HW,2013-01-08 09:42:00,
2013-01-08 03:47:00,31.9,24.5,30.01,SE,135,0.4,0.4,74,0.00,,,0.00,WUHU216HW,2013-01-08 09:47:00,
2013-01-08 03:52:00,31.9,24.5,30.01,SE,135,0.2,0.4,74,0.00,,,0.00,WUHU216HW,2013-01-08 09:52:00,
2013-01-08 03:57:00,31.9,24.5,30.00,SE,135,0.2,0.2,74,0.00,,,0.00,WUHU216HW,2013-01-08 09:57:00,
2013-01-08 04:02:00,32.0,24.7,30.00,SE,135,0.3,0.4,74,0.00,,,0.00,WUHU216HW,2013-01-08 10:02:00,
2013-01-08 04:07:00,32.0,24.7,30.01,SE,135,0.7,0.7,74,0.00,,,0.00,WUHU216HW,2013-01-08 10:07:00,
2013-01-08 04:12:00,32.0,24.7,30.00,SSE,158,0.2,0.7,74,0.00,,,0.00,WUHU216HW,2013-01-08 10:12:00,
2013-01-08 04:17:00,31.9,24.5,30.00,SSE,158,0.0,0.7,74,0.00,,,0.00,WUHU216HW,2013-01-08 10:17:00,
2013-01-08 04:22:00,31.9,24.5,30.00,SE,135,0.2,0.2,74,0.00,,,0.00,WUHU216HW,2013-01-08 10:22:00,
2013-01-08 04:27:00,31.5,24.5,30.00,SE,135,0.2,0.4,75,0.00,,,0.00,WUHU216HW,2013-01-08 10:27:00,
2013-01-08 04:33:00,31.5,24.5,30.00,SE,135,0.0,0.2,75,0.00,,,0.00,WUHU216HW,2013-01-08 10:33:00,
2013-01-08 04:38:00,31.3,24.3,30.00,SE,135,0.1,0.2,75,0.00,,,0.00,WUHU216HW,2013-01-08 10:38:00,
2013-01-08 04:43:00,31.3,24.3,29.99,SE,135,0.0,0.2,75,0.00,,,0.00,WUHU216HW,2013-01-08 10:43:00,
2013-01-08 04:48:00,31.0,24.3,29.99,ESE,113,0.2,0.2,76,0.00,,,0.00,WUHU216HW,2013-01-08 10:48:00,
2013-01-08 04:53:00,30.6,24.0,29.99,ESE,113,0.4,0.4,76,0.00,,,0.00,WUHU216HW,2013-01-08 10:53:00,
2013-01-08 04:58:00,30.4,23.8,29.99,ESE,113,0.0,0.4,76,0.00,,,0.00,WUHU216HW,2013-01-08 10:58:00,
2013-01-08 05:03:00,30.2,23.6,29.99,SE,135,0.0,0.4,76,0.00,,,0.00,WUHU216HW,2013-01-08 11:03:00,
2013-01-08 05:08:00,30.1,24.0,29.99,ESE,113,0.1,0.2,78,0.00,,,0.00,WUHU216HW,2013-01-08 11:08:00,
2013-01-08 05:13:00,30.1,24.0,29.99,SE,135,0.4,0.4,78,0.00,,,0.00,WUHU216HW,2013-01-08 11:13:00,
2013-01-08 05:18:00,29.9,23.5,29.99,SE,135,0.0,0.4,77,0.00,,,0.00,WUHU216HW,2013-01-08 11:18:00,
2013-01-08 05:23:00,29.9,23.9,29.99,SE,135,1.1,1.1,78,0.00,,,0.00,WUHU216HW,2013-01-08 11:23:00,
2013-01-08 05:28:00,30.2,24.2,29.99,SE,135,0.8,2.2,78,0.00,,,0.00,WUHU216HW,2013-01-08 11:28:00,
2013-01-08 05:33:00,30.4,24.4,30.00,SE,141,0.8,2.2,78,0.00,,,0.00,WUHU216HW,2013-01-08 11:33:00,
2013-01-08 05:38:00,30.6,24.2,30.00,SE,135,0.4,1.8,77,0.00,,,0.00,WUHU216HW,2013-01-08 11:38:00,
2013-01-08 05:43:00,30.6,24.2,30.00,ESE,113,1.2,1.3,77,0.00,,,0.00,WUHU216HW,2013-01-08 11:43:00,
2013-01-08 05:48:00,30.6,24.2,30.00,SSE,158,0.7,1.3,77,0.00,,,0.00,WUHU216HW,2013-01-08 11:48:00,
2013-01-08 05:53:00,30.4,24.0,30.00,SSE,158,0.4,0.7,77,0.00,,,0.00,WUHU216HW,2013-01-08 11:53:00,
2013-01-08 05:58:00,30.4,24.0,30.01,SE,135,0.0,0.9,77,0.00,,,0.00,WUHU216HW,2013-01-08 11:58:00,
2013-01-08 06:03:00,30.4,24.0,30.00,ESE,113,0.2,0.9,77,0.00,,,0.00,WUHU216HW,2013-01-08 12:03:00,
2013-01-08 06:07:00,30.4,24.0,30.00,SSE,158,0.2,0.9,77,0.00,,,0.00,WUHU216HW,2013-01-08 12:07:00,
2013-01-08 06:12:00,30.4,23.8,30.01,SE,135,0.2,0.4,76,0.00,,,0.00,WUHU216HW,2013-01-08 12:12:00,
2013-01-08 06:17:00,30.2,23.9,30.01,South,180,0.4,1.3,77,0.00,,,0.00,WUHU216HW,2013-01-08 12:17:00,
2013-01-08 06:22:00,30.2,23.9,30.00,ESE,113,0.0,1.3,77,0.00,,,0.00,WUHU216HW,2013-01-08 12:22:00,
2013-01-08 06:27:00,30.2,23.9,30.01,SE,135,0.0,0.2,77,0.00,,,0.00,WUHU216HW,2013-01-08 12:27:00,
2013-01-08 06:32:00,30.1,24.0,30.01,SE,135,0.0,0.2,78,0.00,,,0.00,WUHU216HW,2013-01-08 12:32:00,
2013-01-08 06:37:00,29.9,23.9,30.01,SE,135,0.1,0.2,78,0.00,,,0.00,WUHU216HW,2013-01-08 12:37:00,
2013-01-08 06:42:00,29.9,23.5,30.01,SE,135,0.2,0.2,77,0.00,,,0.00,WUHU216HW,2013-01-08 12:42:00,
2013-01-08 06:47:00,29.7,23.7,30.01,SE,135,0.0,0.2,78,0.00,,,0.00,WUHU216HW,2013-01-08 12:47:00,
2013-01-08 06:52:00,29.5,23.5,30.01,SSE,158,0.4,0.4,78,0.00,,,0.00,WUHU216HW,2013-01-08 12:52:00,
2013-01-08 06:57:00,29.7,23.7,30.01,SSE,158,0.2,0.4,78,0.00,,,0.00,WUHU216HW,2013-01-08 12:57:00,
2013-01-08 07:02:00,29.7,23.7,30.01,SSE,158,0.2,0.4,78,0.00,,,0.00,WUHU216HW,2013-01-08 13:02:00,
2013-01-08 07:07:00,29.5,23.5,30.01,SE,135,0.1,0.2,78,0.00,,,0.00,WUHU216HW,2013-01-08 13:07:00,
2013-01-08 07:12:00,29.3,23.0,30.01,SSE,158,0.2,0.2,77,0.00,,,0.00,WUHU216HW,2013-01-08 13:12:00,
2013-01-08 07:17:00,29.2,23.1,30.01,SSE,158,0.2,0.2,78,0.00,,,0.00,WUHU216HW,2013-01-08 13:17:00,
2013-01-08 07:22:00,29.0,23.0,30.01,SE,135,0.1,0.4,78,0.00,,,0.00,WUHU216HW,2013-01-08 13:22:00,
2013-01-08 07:27:00,28.8,23.1,30.01,SE,135,0.1,0.4,79,0.00,,,0.00,WUHU216HW,2013-01-08 13:27:00,
2013-01-08 07:32:00,28.8,23.1,30.01,SE,135,0.3,0.4,79,0.00,,,0.00,WUHU216HW,2013-01-08 13:32:00,
2013-01-08 07:37:00,29.0,23.3,30.02,SE,135,0.2,0.4,79,0.00,,,0.00,WUHU216HW,2013-01-08 13:37:00,
2013-01-08 07:42:00,29.2,23.5,30.02,SE,135,0.0,0.4,79,0.00,,,0.00,WUHU216HW,2013-01-08 13:42:00,
2013-01-08 07:47:00,29.3,23.7,30.01,SE,135,0.1,0.2,79,0.00,,,0.00,WUHU216HW,2013-01-08 13:47:00,
2013-01-08 07:52:00,29.7,23.9,30.01,SSE,158,0.4,0.4,79,0.00,,,0.00,WUHU216HW,2013-01-08 13:52:00,
2013-01-08 07:57:00,30.1,24.3,30.01,SE,135,0.2,0.4,79,0.00,,,0.00,WUHU216HW,2013-01-08 13:57:00,
2013-01-08 08:02:00,30.4,24.4,30.02,SSE,152,0.8,1.1,78,0.00,,,0.00,WUHU216HW,2013-01-08 14:02:00,
2013-01-08 08:07:00,31.0,24.9,30.01,SSE,158,0.2,1.1,78,0.00,,,0.00,WUHU216HW,2013-01-08 14:07:00,
2013-01-08 08:12:00,31.5,25.1,30.01,SE,139,1.1,2.9,77,0.00,,,0.00,WUHU216HW,2013-01-08 14:12:00,
2013-01-08 08:17:00,32.0,25.4,30.01,SSE,158,0.4,2.9,76,0.00,,,0.00,WUHU216HW,2013-01-08 14:17:00,
2013-01-08 08:22:00,32.2,25.5,30.02,SSE,158,0.4,0.9,76,0.00,,,0.00,WUHU216HW,2013-01-08 14:22:00,
2013-01-08 08:27:00,32.8,25.7,30.02,SSE,158,1.3,1.3,75,0.00,,,0.00,WUHU216HW,2013-01-08 14:27:00,
2013-01-08 08:32:00,33.3,25.5,30.02,SSE,158,1.1,1.3,73,0.00,,,0.00,WUHU216HW,2013-01-08 14:32:00,
2013-01-08 08:37:00,34.2,25.8,30.02,SE,135,2.5,2.5,71,0.00,,,0.00,WUHU216HW,2013-01-08 14:37:00,
2013-01-08 08:42:00,34.6,26.1,30.02,SE,135,1.1,2.5,71,0.00,,,0.00,WUHU216HW,2013-01-08 14:42:00,
2013-01-08 08:47:00,35.1,26.7,30.02,SSE,148,1.1,3.1,71,0.00,,,0.00,WUHU216HW,2013-01-08 14:47:00,
2013-01-08 08:52:00,35.6,27.2,30.03,SSE,153,1.1,3.1,71,0.00,,,0.00,WUHU216HW,2013-01-08 14:52:00,
2013-01-08 08:57:00,36.4,27.2,30.03,SSE,158,0.9,1.8,69,0.00,,,0.00,WUHU216HW,2013-01-08 14:57:00,
2013-01-08 09:02:00,37.1,27.2,30.02,SE,135,0.8,1.3,67,0.00,,,0.00,WUHU216HW,2013-01-08 15:02:00,
2013-01-08 09:07:00,37.8,27.8,30.02,SE,135,0.9,1.8,67,0.00,,,0.00,WUHU216HW,2013-01-08 15:07:00,
2013-01-08 09:12:00,38.2,27.7,30.02,SSE,158,0.4,1.8,66,0.00,,,0.00,WUHU216HW,2013-01-08 15:12:00,
2013-01-08 09:17:00,38.5,27.4,30.03,SSE,153,2.5,2.9,64,0.00,,,0.00,WUHU216HW,2013-01-08 15:17:00,
2013-01-08 09:22:00,39.1,27.5,30.03,SSE,160,2.3,4.0,63,0.00,,,0.00,WUHU216HW,2013-01-08 15:22:00,
2013-01-08 09:27:00,39.8,28.2,30.03,SE,135,1.8,4.0,63,0.00,,,0.00,WUHU216HW,2013-01-08 15:27:00,
2013-01-08 09:32:00,40.1,28.1,30.03,ESE,113,2.5,2.5,62,0.00,,,0.00,WUHU216HW,2013-01-08 15:32:00,
2013-01-08 09:37:00,39.2,27.6,30.03,SSE,158,1.5,2.9,63,0.00,,,0.00,WUHU216HW,2013-01-08 15:37:00,
2013-01-08 09:42:00,39.6,28.0,30.03,SE,135,2.7,2.9,63,0.00,,,0.00,WUHU216HW,2013-01-08 15:42:00,
2013-01-08 09:47:00,40.7,28.6,30.03,South,173,2.9,4.0,62,0.00,,,0.00,WUHU216HW,2013-01-08 15:47:00,
2013-01-08 09:52:00,41.0,28.6,30.03,South,180,3.1,4.0,61,0.00,,,0.00,WUHU216HW,2013-01-08 15:52:00,
2013-01-08 09:57:00,42.1,28.4,30.03,ESE,113,3.6,3.6,58,0.00,,,0.00,WUHU216HW,2013-01-08 15:57:00,
2013-01-08 10:02:00,42.8,29.0,30.03,SSE,158,1.7,3.6,58,0.00,,,0.00,WUHU216HW,2013-01-08 16:02:00,
2013-01-08 10:07:00,43.6,28.5,30.03,South,189,4.1,4.7,55,0.00,,,0.00,WUHU216HW,2013-01-08 16:07:00,
2013-01-08 10:12:00,43.6,28.8,30.03,SE,135,2.7,4.7,56,0.00,,,0.00,WUHU216HW,2013-01-08 16:12:00,
2013-01-08 10:17:00,43.6,28.8,30.03,SE,139,1.5,3.6,56,0.00,,,0.00,WUHU216HW,2013-01-08 16:17:00,
2013-01-08 10:22:00,44.3,28.6,30.03,ESE,113,2.7,4.5,54,0.00,,,0.00,WUHU216HW,2013-01-08 16:22:00,
2013-01-08 10:27:00,44.5,28.4,30.03,SE,135,3.4,4.5,53,0.00,,,0.00,WUHU216HW,2013-01-08 16:27:00,
2013-01-08 10:32:00,45.0,28.9,30.02,SSE,167,3.0,4.0,53,0.00,,,0.00,WUHU216HW,2013-01-08 16:32:00,
2013-01-08 10:37:00,45.4,29.6,30.01,ESE,115,1.6,4.0,54,0.00,,,0.00,WUHU216HW,2013-01-08 16:37:00,
2013-01-08 10:42:00,45.9,29.3,30.02,SSE,158,4.3,4.3,52,0.00,,,0.00,WUHU216HW,2013-01-08 16:42:00,
2013-01-08 10:47:00,46.4,28.8,30.02,SSE,158,2.4,4.3,50,0.00,,,0.00,WUHU216HW,2013-01-08 16:47:00,
2013-01-08 10:52:00,47.0,29.7,30.02,SE,135,2.5,3.8,51,0.00,,,0.00,WUHU216HW,2013-01-08 16:52:00,
2013-01-08 10:57:00,47.3,30.1,30.01,ESE,119,1.1,3.8,51,0.00,,,0.00,WUHU216HW,2013-01-08 16:57:00,
2013-01-08 11:02:00,47.5,28.7,30.01,ESE,113,2.0,4.0,48,0.00,,,0.00,WUHU216HW,2013-01-08 17:02:00,
2013-01-08 11:07:00,47.9,29.0,30.01,SSE,149,4.3,5.1,48,0.00,,,0.00,WUHU216HW,2013-01-08 17:07:00,
2013-01-08 11:12:00,48.2,28.8,30.01,SE,135,2.7,5.1,47,0.00,,,0.00,WUHU216HW,2013-01-08 17:12:00,
2013-01-08 11:17:00,48.6,29.2,30.01,ESE,113,2.3,3.4,47,0.00,,,0.00,WUHU216HW,2013-01-08 17:17:00,
2013-01-08 11:22:00,48.8,29.4,30.01,ESE,113,1.8,4.0,47,0.00,,,0.00,WUHU216HW,2013-01-08 17:22:00,
2013-01-08 11:27:00,48.8,28.8,30.00,ESE,122,2.7,4.0,46,0.00,,,0.00,WUHU216HW,2013-01-08 17:27:00,
2013-01-08 11:32:00,48.4,29.0,30.00,South,180,2.5,3.1,47,0.00,,,0.00,WUHU216HW,2013-01-08 17:32:00,
2013-01-08 11:37:00,48.8,29.9,30.00,SSE,147,1.9,2.9,48,0.00,,,0.00,WUHU216HW,2013-01-08 17:37:00,
2013-01-08 11:42:00,49.9,29.8,29.99,ESE,113,5.1,5.1,46,0.00,,,0.00,WUHU216HW,2013-01-08 17:42:00,
2013-01-08 11:47:00,49.9,29.8,29.99,SSE,158,2.2,5.1,46,0.00,,,0.00,WUHU216HW,2013-01-08 17:47:00,
2013-01-08 11:52:00,49.7,30.3,29.99,South,180,3.6,4.0,47,0.00,,,0.00,WUHU216HW,2013-01-08 17:52:00,
2013-01-08 11:57:00,49.1,30.3,29.98,SE,136,3.0,4.7,48,0.00,,,0.00,WUHU216HW,2013-01-08 17:57:00,
2013-01-08 12:02:00,49.5,31.2,29.98,SE,129,2.4,4.9,49,0.00,,,0.00,WUHU216HW,2013-01-08 18:02:00,
2013-01-08 12:07:00,50.2,30.7,29.98,SSE,151,1.8,4.9,47,0.00,,,0.00,WUHU216HW,2013-01-08 18:07:00,
2013-01-08 12:12:00,50.4,31.4,29.98,SE,135,2.5,4.9,48,0.00,,,0.00,WUHU216HW,2013-01-08 18:12:00,
2013-01-08 12:17:00,50.4,30.9,29.97,SSE,150,2.6,4.9,47,0.00,,,0.00,WUHU216HW,2013-01-08 18:17:00,
2013-01-08 12:22:00,50.9,32.0,29.97,SE,135,2.5,3.4,48,0.00,,,0.00,WUHU216HW,2013-01-08 18:22:00,
2013-01-08 12:27:00,51.1,32.0,29.97,SE,135,5.4,5.4,48,0.00,,,0.00,WUHU216HW,2013-01-08 18:27:00,
2013-01-08 12:32:00,50.8,32.3,29.96,SE,135,2.2,5.4,49,0.00,,,0.00,WUHU216HW,2013-01-08 18:32:00,
2013-01-08 12:37:00,50.8,32.3,29.96,SE,125,1.7,3.1,49,0.00,,,0.00,WUHU216HW,2013-01-08 18:37:00,
2013-01-08 12:42:00,50.8,32.9,29.96,East,86,1.9,2.9,50,0.00,,,0.00,WUHU216HW,2013-01-08 18:42:00,
2013-01-08 12:48:00,51.1,33.7,29.96,SE,135,1.2,2.7,51,0.00,,,0.00,WUHU216HW,2013-01-08 18:48:00,
2013-01-08 12:53:00,51.7,34.1,29.95,ESE,113,2.7,2.7,51,0.00,,,0.00,WUHU216HW,2013-01-08 18:53:00,
2013-01-08 12:58:00,51.5,33.9,29.95,SE,135,1.6,3.6,51,0.00,,,0.00,WUHU216HW,2013-01-08 18:58:00,
2013-01-08 13:03:00,51.5,34.4,29.95,South,180,2.6,3.6,52,0.00,,,0.00,WUHU216HW,2013-01-08 19:03:00,
2013-01-08 13:08:00,51.5,34.4,29.95,SE,135,1.8,2.9,52,0.00,,,0.00,WUHU216HW,2013-01-08 19:08:00,
2013-01-08 13:13:00,51.8,34.3,29.95,SE,135,1.6,2.5,51,0.00,,,0.00,WUHU216HW,2013-01-08 19:13:00,
2013-01-08 13:18:00,52.2,35.1,29.94,SE,135,2.8,3.1,52,0.00,,,0.00,WUHU216HW,2013-01-08 19:18:00,
2013-01-08 13:23:00,52.2,35.1,29.95,SSE,149,2.5,3.4,52,0.00,,,0.00,WUHU216HW,2013-01-08 19:23:00,
2013-01-08 13:28:00,52.2,34.7,29.94,SE,135,2.5,3.4,51,0.00,,,0.00,WUHU216HW,2013-01-08 19:28:00,
2013-01-08 13:33:00,52.2,35.1,29.94,SSE,158,3.4,3.4,52,0.00,,,0.00,WUHU216HW,2013-01-08 19:33:00,
2013-01-08 13:38:00,52.2,35.1,29.93,SE,135,0.8,3.4,52,0.00,,,0.00,WUHU216HW,2013-01-08 19:38:00,
2013-01-08 13:43:00,52.4,35.7,29.94,ESE,113,1.1,2.5,53,0.00,,,0.00,WUHU216HW,2013-01-08 19:43:00,
2013-01-08 13:48:00,52.9,36.2,29.94,South,169,2.6,2.7,53,0.00,,,0.00,WUHU216HW,2013-01-08 19:48:00,
2013-01-08 13:53:00,53.1,35.9,29.94,SE,135,2.7,3.1,52,0.00,,,0.00,WUHU216HW,2013-01-08 19:53:00,
2013-01-08 13:58:00,53.3,36.1,29.94,SE,146,1.9,3.1,52,0.00,,,0.00,WUHU216HW,2013-01-08 19:58:00,
2013-01-08 14:05:00,53.5,36.7,29.94,South,180,1.6,2.0,53,0.00,,,0.00,WUHU216HW,2013-01-08 20:05:00,
2013-01-08 14:10:00,54.0,36.7,29.93,SSW,201,1.8,2.5,52,0.00,,,0.00,WUHU216HW,2013-01-08 20:10:00,
2013-01-08 14:15:00,54.4,37.1,29.94,South,190,2.8,4.5,52,0.00,,,0.00,WUHU216HW,2013-01-08 20:15:00,
2013-01-08 14:20:00,54.5,37.2,29.94,SE,135,2.9,4.5,52,0.00,,,0.00,WUHU216HW,2013-01-08 20:20:00,
2013-01-08 14:25:00,54.7,37.4,29.95,SSE,167,2.5,4.7,52,0.00,,,0.00,WUHU216HW,2013-01-08 20:25:00,
2013-01-08 14:30:00,54.4,37.5,29.95,SSW,194,4.4,5.8,53,0.00,,,0.00,WUHU216HW,2013-01-08 20:30:00,
2013-01-08 14:35:00,54.2,37.8,29.95,SE,140,4.3,5.8,54,0.00,,,0.00,WUHU216HW,2013-01-08 20:35:00,
2013-01-08 14:40:00,54.0,37.6,29.95,SE,135,2.7,5.4,54,0.00,,,0.00,WUHU216HW,2013-01-08 20:40:00,
2013-01-08 14:45:00,54.0,37.6,29.95,SW,225,1.1,5.4,54,0.00,,,0.00,WUHU216HW,2013-01-08 20:45:00,
2013-01-08 14:50:00,54.2,37.8,29.95,SE,135,1.8,3.1,54,0.00,,,0.00,WUHU216HW,2013-01-08 20:50:00,
2013-01-08 14:55:00,54.4,38.0,29.95,SSE,158,1.8,3.1,54,0.00,,,0.00,WUHU216HW,2013-01-08 20:55:00,
2013-01-08 15:00:00,54.7,37.8,29.95,SE,143,1.7,2.5,53,0.00,,,0.00,WUHU216HW,2013-01-08 21:00:00,
2013-01-08 15:05:00,54.7,37.4,29.95,SE,135,1.1,3.4,52,0.00,,,0.00,WUHU216HW,2013-01-08 21:05:00,
2013-01-08 15:10:00,54.7,37.8,29.95,ESE,113,1.8,3.4,53,0.00,,,0.00,WUHU216HW,2013-01-08 21:10:00,
2013-01-08 15:15:00,54.9,37.5,29.95,ESE,113,0.9,2.5,52,0.00,,,0.00,WUHU216HW,2013-01-08 21:15:00,
2013-01-08 15:20:00,54.7,37.4,29.95,ESE,121,0.9,2.5,52,0.00,,,0.00,WUHU216HW,2013-01-08 21:20:00,
2013-01-08 15:25:00,54.5,37.2,29.95,SSE,147,1.7,2.5,52,0.00,,,0.00,WUHU216HW,2013-01-08 21:25:00,
2013-01-08 15:30:00,54.5,37.7,29.95,ESE,113,0.4,2.0,53,0.00,,,0.00,WUHU216HW,2013-01-08 21:30:00,
2013-01-08 15:35:00,54.4,37.5,29.96,ESE,113,1.1,2.0,53,0.00,,,0.00,WUHU216HW,2013-01-08 21:35:00,
2013-01-08 15:40:00,54.0,37.2,29.96,SSE,158,0.7,1.8,53,0.00,,,0.00,WUHU216HW,2013-01-08 21:40:00,
2013-01-08 15:45:00,54.0,37.6,29.95,East,87,1.5,2.0,54,0.00,,,0.00,WUHU216HW,2013-01-08 21:45:00,
2013-01-08 15:50:00,54.0,37.2,29.95,ENE,68,1.3,2.0,53,0.00,,,0.00,WUHU216HW,2013-01-08 21:50:00,
2013-01-08 15:55:00,53.8,37.0,29.96,SE,135,1.3,1.3,53,0.00,,,0.00,WUHU216HW,2013-01-08 21:55:00,
2013-01-08 16:00:00,53.8,37.0,29.96,SE,135,0.9,2.5,53,0.00,,,0.00,WUHU216HW,2013-01-08 22:00:00,
2013-01-08 16:05:00,53.8,37.0,29.96,ESE,113,0.8,2.9,53,0.00,,,0.00,WUHU216HW,2013-01-08 22:05:00,
2013-01-08 16:10:00,53.6,36.4,29.95,SSE,152,2.4,3.6,52,0.00,,,0.00,WUHU216HW,2013-01-08 22:10:00,
2013-01-08 16:15:00,53.6,36.9,29.95,SSE,158,1.5,3.6,53,0.00,,,0.00,WUHU216HW,2013-01-08 22:15:00,
2013-01-08 16:20:00,53.3,36.6,29.96,SSE,155,2.2,4.0,53,0.00,,,0.00,WUHU216HW,2013-01-08 22:20:00,
2013-01-08 16:25:00,53.3,36.6,29.96,ESE,113,1.8,4.0,53,0.00,,,0.00,WUHU216HW,2013-01-08 22:25:00,
2013-01-08 16:30:00,53.1,36.8,29.96,ESE,113,0.2,1.8,54,0.00,,,0.00,WUHU216HW,2013-01-08 22:30:00,
2013-01-08 16:35:00,52.9,36.6,29.96,SSE,158,1.1,1.3,54,0.00,,,0.00,WUHU216HW,2013-01-08 22:35:00,
2013-01-08 16:40:00,52.9,37.1,29.96,SE,135,0.9,1.3,55,0.00,,,0.00,WUHU216HW,2013-01-08 22:40:00,
2013-01-08 16:45:00,52.7,36.9,29.96,SSE,158,0.4,0.9,55,0.00,,,0.00,WUHU216HW,2013-01-08 22:45:00,
2013-01-08 16:50:00,52.6,36.8,29.96,SSE,158,0.3,1.1,55,0.00,,,0.00,WUHU216HW,2013-01-08 22:50:00,
2013-01-08 16:55:00,52.4,37.1,29.96,SSE,158,0.4,1.1,56,0.00,,,0.00,WUHU216HW,2013-01-08 22:55:00,
2013-01-08 17:00:00,52.4,37.1,29.96,SSE,158,0.2,0.9,56,0.00,,,0.00,WUHU216HW,2013-01-08 23:00:00,
2013-01-08 17:05:00,52.2,36.9,29.96,ESE,113,0.4,2.5,56,0.00,,,0.00,WUHU216HW,2013-01-08 23:05:00,
2013-01-08 17:10:00,52.2,37.4,29.96,SE,135,0.4,2.5,57,0.00,,,0.00,WUHU216HW,2013-01-08 23:10:00,
2013-01-08 17:15:00,52.0,37.2,29.96,SE,135,0.7,0.7,57,0.00,,,0.00,WUHU216HW,2013-01-08 23:15:00,
2013-01-08 17:20:00,51.8,37.4,29.96,SE,135,0.7,0.7,58,0.00,,,0.00,WUHU216HW,2013-01-08 23:20:00,
2013-01-08 17:25:00,51.8,37.4,29.97,SE,135,0.4,0.7,58,0.00,,,0.00,WUHU216HW,2013-01-08 23:25:00,
2013-01-08 17:30:00,51.8,37.4,29.97,SE,135,0.7,2.0,58,0.00,,,0.00,WUHU216HW,2013-01-08 23:30:00,
2013-01-08 17:35:00,51.8,37.9,29.97,SE,135,2.0,2.0,59,0.00,,,0.00,WUHU216HW,2013-01-08 23:35:00,
2013-01-08 17:40:00,51.8,37.9,29.96,ESE,113,0.4,2.0,59,0.00,,,0.00,WUHU216HW,2013-01-08 23:40:00,
2013-01-08 17:45:00,51.8,37.9,29.96,SSE,158,0.6,1.1,59,0.00,,,0.00,WUHU216HW,2013-01-08 23:45:00,
2013-01-08 17:50:00,51.8,38.3,29.96,ESE,119,0.6,1.1,60,0.00,,,0.00,WUHU216HW,2013-01-08 23:50:00,
2013-01-08 17:55:00,52.0,38.5,29.97,SE,135,1.6,1.6,60,0.00,,,0.00,WUHU216HW,2013-01-08 23:55:00,
2013-01-08 18:00:00,52.0,38.5,29.98,SE,135,0.7,1.6,60,0.00,,,0.00,WUHU216HW,2013-01-09 00:00:00,
2013-01-08 18:05:00,51.8,38.3,29.98,South,174,0.8,2.2,60,0.00,,,0.00,WUHU216HW,2013-01-09 00:05:00,
2013-01-08 18:10:00,51.8,38.8,29.98,SE,135,0.7,2.2,61,0.00,,,0.00,WUHU216HW,2013-01-09 00:10:00,
2013-01-08 18:15:00,51.8,38.8,29.98,SSE,158,2.2,2.2,61,0.00,,,0.00,WUHU216HW,2013-01-09 00:15:00,
2013-01-08 18:20:00,51.8,39.2,29.98,SSE,158,1.1,2.2,62,0.00,,,0.00,WUHU216HW,2013-01-09 00:20:00,
2013-01-08 18:25:00,51.8,39.2,29.98,SE,135,0.2,1.1,62,0.00,,,0.00,WUHU216HW,2013-01-09 00:25:00,
2013-01-08 18:30:00,51.7,39.0,29.99,SSE,158,0.4,1.3,62,0.00,,,0.00,WUHU216HW,2013-01-09 00:30:00,
2013-01-08 18:35:00,51.8,39.2,29.99,SSE,158,0.2,1.3,62,0.00,,,0.00,WUHU216HW,2013-01-09 00:35:00,
2013-01-08 18:40:00,51.7,39.4,29.99,ESE,113,1.6,1.6,63,0.00,,,0.00,WUHU216HW,2013-01-09 00:40:00,
2013-01-08 18:45:00,51.5,39.7,29.99,SSE,158,1.3,1.8,64,0.00,,,0.00,WUHU216HW,2013-01-09 00:45:00,
2013-01-08 18:50:00,51.7,39.9,29.99,SE,135,0.8,1.8,64,0.00,,,0.00,WUHU216HW,2013-01-09 00:50:00,
2013-01-08 18:55:00,51.8,40.0,29.99,SE,135,1.8,1.8,64,0.00,,,0.00,WUHU216HW,2013-01-09 00:55:00,
2013-01-08 19:00:00,51.7,41.5,30.00,SSE,151,1.2,2.0,68,0.00,,,0.00,WUHU216HW,2013-01-09 01:00:00,
2013-01-08 19:05:00,51.1,42.1,29.99,SE,135,0.4,2.0,71,0.01,,,0.01,WUHU216HW,2013-01-09 01:05:00,
2013-01-08 19:10:00,50.4,40.2,30.00,SE,135,0.2,1.6,68,0.01,,,0.01,WUHU216HW,2013-01-09 01:10:00,
2013-01-08 19:15:00,50.0,40.3,30.00,SSE,158,0.1,0.4,69,0.01,,,0.01,WUHU216HW,2013-01-09 01:15:00,
2013-01-08 19:20:00,49.7,41.1,30.00,SSE,158,0.2,0.4,72,0.01,,,0.01,WUHU216HW,2013-01-09 01:20:00,
2013-01-08 19:25:00,49.3,41.3,30.00,SE,135,0.3,1.1,74,0.01,,,0.01,WUHU216HW,2013-01-09 01:25:00,
2013-01-08 19:30:00,49.1,41.9,30.00,SE,135,0.0,1.1,76,0.01,,,0.01,WUHU216HW,2013-01-09 01:30:00,
2013-01-08 19:35:00,48.8,40.4,30.00,SE,135,0.0,0.0,73,0.01,,,0.01,WUHU216HW,2013-01-09 01:35:00,
2013-01-08 19:40:00,48.6,40.2,30.01,SE,135,0.0,0.0,73,0.02,,,0.02,WUHU216HW,2013-01-09 01:40:00,
2013-01-08 19:45:00,48.4,40.4,30.01,SE,135,0.0,0.0,74,0.02,,,0.02,WUHU216HW,2013-01-09 01:45:00,
2013-01-08 19:50:00,48.2,41.6,30.01,SE,135,0.2,0.4,78,0.02,,,0.02,WUHU216HW,2013-01-09 01:50:00,
2013-01-08 19:55:00,48.2,41.3,30.01,South,180,0.4,0.4,77,0.02,,,0.02,WUHU216HW,2013-01-09 01:55:00,
2013-01-08 20:00:00,48.1,40.8,30.01,South,180,0.2,0.4,76,0.02,,,0.02,WUHU216HW,2013-01-09 02:00:00,
2013-01-08 20:05:00,47.9,41.0,30.01,South,180,0.2,0.2,77,0.01,,,0.02,WUHU216HW,2013-01-09 02:05:00,
2013-01-08 20:10:00,47.9,41.3,30.01,SSE,158,0.4,0.4,78,0.01,,,0.02,WUHU216HW,2013-01-09 02:10:00,
2013-01-08 20:15:00,47.9,41.9,30.02,SSE,158,0.2,0.4,80,0.01,,,0.02,WUHU216HW,2013-01-09 02:15:00,
2013-01-08 20:20:00,47.9,41.3,30.02,SSW,203,0.9,0.9,78,0.02,,,0.03,WUHU216HW,2013-01-09 02:20:00,
2013-01-08 20:25:00,47.7,42.8,30.02,SSE,158,0.4,0.9,83,0.02,,,0.03,WUHU216HW,2013-01-09 02:25:00,
2013-01-08 20:30:00,47.5,43.2,30.02,SE,135,0.4,1.1,85,0.03,,,0.04,WUHU216HW,2013-01-09 02:30:00,
2013-01-08 20:35:00,47.5,43.6,30.02,SE,135,0.6,1.1,86,0.03,,,0.05,WUHU216HW,2013-01-09 02:35:00,
2013-01-08 20:40:00,47.3,43.0,30.03,SE,135,1.1,1.1,85,0.04,,,0.06,WUHU216HW,2013-01-09 02:40:00,
2013-01-08 20:45:00,47.3,43.4,30.03,SE,135,0.3,1.1,86,0.05,,,0.07,WUHU216HW,2013-01-09 02:45:00,
2013-01-08 20:50:00,47.2,42.9,30.04,SSE,158,0.4,1.1,85,0.05,,,0.07,WUHU216HW,2013-01-09 02:50:00,
2013-01-08 20:55:00,47.2,43.8,30.03,SSE,158,0.4,1.3,88,0.06,,,0.08,WUHU216HW,2013-01-09 02:55:00,
2013-01-08 21:00:00,47.2,43.8,30.03,SE,135,1.1,1.3,88,0.07,,,0.09,WUHU216HW,2013-01-09 03:00:00,
2013-01-08 21:05:00,47.2,43.8,30.03,SSE,158,1.1,1.6,88,0.07,,,0.09,WUHU216HW,2013-01-09 03:05:00,
2013-01-08 21:10:00,47.2,43.8,30.04,SSE,158,1.1,1.6,88,0.08,,,0.10,WUHU216HW,2013-01-09 03:10:00,
2013-01-08 21:15:00,47.3,44.6,30.03,SE,135,0.7,1.3,90,0.08,,,0.10,WUHU216HW,2013-01-09 03:15:00,
2013-01-08 21:20:00,47.2,43.8,30.04,SE,135,0.1,1.3,88,0.07,,,0.10,WUHU216HW,2013-01-09 03:20:00,
2013-01-08 21:25:00,47.2,43.8,30.04,SE,135,0.0,0.4,88,0.08,,,0.12,WUHU216HW,2013-01-09 03:25:00,
2013-01-08 21:30:00,47.2,43.6,30.04,SE,135,0.3,0.4,87,0.08,,,0.13,WUHU216HW,2013-01-09 03:30:00,
2013-01-08 21:35:00,47.2,44.2,30.04,SE,135,0.0,0.4,89,0.07,,,0.13,WUHU216HW,2013-01-09 03:35:00,
2013-01-08 21:40:00,47.2,44.2,30.04,SE,135,0.0,0.2,89,0.06,,,0.13,WUHU216HW,2013-01-09 03:40:00,
2013-01-08 21:45:00,47.2,43.8,30.04,SE,135,0.2,0.4,88,0.08,,,0.15,WUHU216HW,2013-01-09 03:45:00,
2013-01-08 21:50:00,47.2,44.2,30.04,SE,135,1.1,1.1,89,0.07,,,0.15,WUHU216HW,2013-01-09 03:50:00,
2013-01-08 21:55:00,47.3,44.9,30.04,SE,135,1.1,1.1,91,0.08,,,0.16,WUHU216HW,2013-01-09 03:55:00,
2013-01-08 22:00:00,47.5,45.4,30.04,SE,135,1.3,2.0,92,0.08,,,0.17,WUHU216HW,2013-01-09 04:00:00,
2013-01-08 22:05:00,47.5,45.4,30.04,SE,135,1.1,2.0,92,0.10,,,0.19,WUHU216HW,2013-01-09 04:05:00,
2013-01-08 22:10:00,47.5,45.4,30.04,SE,135,0.9,1.3,92,0.10,,,0.20,WUHU216HW,2013-01-09 04:10:00,
2013-01-08 22:15:00,47.7,45.5,30.04,SE,138,0.6,1.6,92,0.11,,,0.21,WUHU216HW,2013-01-09 04:15:00,
2013-01-08 22:20:00,47.7,45.5,30.04,SSE,150,1.0,1.6,92,0.10,,,0.21,WUHU216HW,2013-01-09 04:20:00,
2013-01-08 22:25:00,47.9,46.0,30.04,SE,142,1.5,2.0,93,0.10,,,0.22,WUHU216HW,2013-01-09 04:25:00,
2013-01-08 22:30:00,47.7,45.8,30.04,SSE,158,0.9,2.0,93,0.10,,,0.23,WUHU216HW,2013-01-09 04:30:00,
2013-01-08 22:35:00,47.7,45.8,30.04,SE,126,0.6,1.1,93,0.10,,,0.23,WUHU216HW,2013-01-09 04:35:00,
2013-01-08 22:40:00,47.5,45.6,30.04,SSE,158,0.4,1.1,93,0.09,,,0.23,WUHU216HW,2013-01-09 04:40:00,
2013-01-08 22:45:00,47.5,45.6,30.05,ESE,113,0.4,0.7,93,0.08,,,0.23,WUHU216HW,2013-01-09 04:45:00,
2013-01-08 22:50:00,47.5,45.4,30.05,SSE,158,0.7,2.0,92,0.08,,,0.23,WUHU216HW,2013-01-09 04:50:00,
2013-01-08 22:55:00,47.3,45.2,30.05,SE,135,0.9,2.0,92,0.08,,,0.24,WUHU216HW,2013-01-09 04:55:00,
2013-01-08 23:00:00,47.3,44.9,30.06,SE,135,0.0,0.9,91,0.06,,,0.24,WUHU216HW,2013-01-09 05:00:00,
2013-01-08 23:02:00,47.3,44.9,30.06,SE,135,0.0,0.9,91,0.06,,,0.24,WUHU216HW,2013-01-09 05:02:00,
2013-01-08 23:03:00,47.3,44.9,30.06,ESE,113,1.1,1.1,91,0.05,,,0.24,WUHU216HW,2013-01-09 05:03:00,
2013-01-08 23:08:00,47.2,44.7,30.07,ESE,113,0.1,1.1,91,0.04,,,0.24,WUHU216HW,2013-01-09 05:08:00,
2013-01-08 23:13:00,47.2,44.7,30.07,ESE,113,0.0,0.4,91,0.03,,,0.24,WUHU216HW,2013-01-09 05:13:00,
2013-01-08 23:18:00,47.2,44.7,30.07,ESE,113,0.0,0.4,91,0.03,,,0.24,WUHU216HW,2013-01-09 05:18:00,
2013-01-08 23:23:00,47.2,44.7,30.07,ESE,113,0.0,0.2,91,0.03,,,0.25,WUHU216HW,2013-01-09 05:23:00,
2013-01-08 23:28:00,47.2,44.7,30.08,ESE,113,0.3,0.4,91,0.03,,,0.26,WUHU216HW,2013-01-09 05:28:00,
2013-01-08 23:33:00,47.2,44.7,30.08,ESE,113,0.4,0.4,91,0.03,,,0.26,WUHU216HW,2013-01-09 05:33:00,
2013-01-08 23:38:00,47.2,44.7,30.08,ESE,113,0.0,0.4,91,0.04,,,0.27,WUHU216HW,2013-01-09 05:38:00,
2013-01-08 23:43:00,47.2,44.7,30.08,ESE,113,0.2,0.4,91,0.04,,,0.27,WUHU216HW,2013-01-09 05:43:00,
2013-01-08 23:48:00,47.2,44.7,30.09,ESE,113,0.1,0.7,91,0.04,,,0.27,WUHU216HW,2013-01-09 05:48:00,
2013-01-08 23:53:00,47.0,44.6,30.09,ESE,113,0.1,0.7,91,0.03,,,0.27,WUHU216HW,2013-01-09 05:53:00,
2013-01-08 23:58:00,46.8,44.4,30.09,ESE,113,0.0,0.7,91,0.03,,,0.27,WUHU216HW,2013-01-09 05:58:00,